Wind_Speed
84 86 87 88 89 91 93 97 100 102 105 106 107 107 105 102 98 94 91 92 92 92 91 88 87 86 85 82 80 78 78 78 80 81 81 79 77 76 74 74 74 75 76 75 75 74 72 70 67 66 64 63 61 60 60 60 61 62 62 63 62 61 60 57 55 54 52 51 50 49 48 46 44 43 42 41 41 41 42 43 43 44 44 45 46 47
83 84 85 86 87 89 92 95 98 101 104 106 108 108 107 104 100 96 93 92 92 91 89 87 86 85 83 81 80 80 81 83 83 82 80 79 79 78 77 76 76 74 72 70 69 68 67 66 65 64 62 61 60 59 59 59 59 61 62 62 62 61 60 59 57 55 54 52 51 51 50 49 47 45 44 43 42 42 42 42 42 42 43 44 45 46
82 83 84 85 86 88 90 92 96 100 103 106 108 109 108 106 103 99 95 93 92 90 87 87 87 86 84 83 83 84 84 85 84 82 80 80 80 80 80 79 78 75 71 68 66 65 64 64 63 62 61 60 59 58 58 57 58 59 60 62 62 61 60 59 58 57 56 54 53 52 51 50 48 47 46 44 43 42 42 41 41 41 42 43 44 45
82 82 83 85 86 87 88 91 94 98 101 105 108 110 110 108 105 102 98 95 92 89 87 88 89 88 86 85 83 81 81 82 82 80 79 79 80 81 81 81 79 76 73 70 67 65 64 63 63 62 61 61 59 58 57 57 57 57 59 60 61 62 61 60 59 58 57 56 55 54 52 51 49 48 46 45 44 43 41 40 40 41 42 43 44 45
81 82 83 84 84 85 87 90 92 96 99 103 107 110 111 111 108 105 101 98 94 91 89 90 91 91 88 84 80 77 77 78 78 78 77 78 80 82 83 83 81 78 75 71 68 66 64 63 62 62 62 61 60 59 58 58 57 57 58 59 60 61 62 62 61 60 58 57 56 55 53 52 50 48 47 45 43 42 40 40 40 40 41 42 43 44
81 82 83 83 83 84 86 88 90 93 96 100 105 109 112 112 111 108 104 100 97 94 92 94 95 94 90 84 79 76 75 75 76 76 77 78 80 83 85 85 83 80 77 74 71 67 64 63 62 62 62 61 61 60 60 60 59 59 58 59 60 61 62 63 62 61 60 59 58 57 55 53 51 48 46 44 42 40 39 38 38 39 39 40 41 42
82 82 82 82 83 84 85 86 89 91 93 97 102 108 112 114 113 110 108 104 100 97 96 97 99 98 93 86 80 76 73 72 73 75 77 79 82 85 87 87 86 84 81 78 75 71 66 64 62 62 62 62 62 62 61 61 61 61 60 60 61 62 63 64 64 63 62 61 59 58 57 55 53 50 46 43 40 37 36 36 36 36 36 38 39 39
80 81 80 81 82 83 83 85 87 89 91 94 98 104 110 113 114 113 110 107 103 100 98 100 102 102 97 89 81 76 72 70 69 71 74 79 83 86 88 88 87 86 84 81 78 74 70 66 64 63 63 63 63 63 63 63 63 62 62 62 62 62 63 64 64 64 64 62 61 60 58 57 55 52 49 45 40 36 35 34 34 34 34 35 36 37
80 80 80 81 81 81 81 83 85 87 89 91 95 101 107 112 114 114 112 110 106 102 100 102 104 105 101 93 84 77 73 69 67 67 71 76 81 85 86 87 87 86 85 83 81 78 74 70 68 66 65 65 64 64 64 64 64 64 64 64 64 63 63 64 64 65 65 64 62 61 59 58 56 54 52 49 45 41 38 36 35 35 35 35 35 34
79 80 80 81 81 81 81 82 84 86 87 89 92 97 104 109 113 114 113 112 108 105 102 103 105 106 105 98 89 82 76 72 69 67 68 73 78 82 84 85 86 86 86 85 84 81 78 75 72 69 68 67 66 66 66 66 66 66 66 65 65 64 64 63 64 64 65 64 63 61 60 59 57 55 53 51 49 47 45 43 42 41 39 37 35 34
78 79 80 80 80 80 81 82 83 84 85 86 89 93 99 106 110 112 112 112 110 107 104 104 105 106 106 101 94 87 82 77 73 70 69 72 76 80 82 83 84 85 86 86 86 84 82 79 75 72 70 68 67 66 67 67 67 67 67 67 66 65 64 63 63 64 64 64 63 62 60 59 57 56 54 52 51 51 51 50 49 48 46 43 39 36
77 79 79 79 79 79 79 81 82 82 83 83 84 87 92 100 107 110 111 111 111 109 106 104 104 105 105 102 98 93 88 83 78 74 73 74 75 76 77 79 80 82 83 85 86 85 84 81 78 75 71 68 67 67 68 69 69 68 68 68 67 66 64 63 62 62 63 63 63 62 60 59 57 56 54 52 51 51 52 52 52 51 50 47 44 40
77 78 78 78 78 78 78 79 79 79 80 81 82 85 89 96 103 107 109 110 110 109 108 105 104 104 104 102 100 96 93 88 83 79 77 75 72 71 72 74 77 79 81 83 84 85 85 83 80 76 72 69 68 69 70 70 70 69 69 68 68 66 64 62 61 61 62 63 62 62 60 59 57 55 54 52 51 51 51 52 52 51 50 48 46 43
75 76 77 77 77 77 78 78 78 78 80 82 83 86 89 93 98 103 106 108 108 109 107 105 103 102 101 100 99 97 94 90 86 82 79 75 72 70 71 73 75 77 80 82 83 85 85 84 81 78 73 71 71 72 72 72 71 70 69 68 68 66 64 62 61 60 61 61 62 61 60 59 57 55 54 53 52 51 51 51 51 50 48 47 45 44
74 75 76 76 76 76 76 76 77 78 80 82 83 84 85 87 91 96 101 104 106 107 106 105 103 102 100 98 96 95 94 90 87 83 80 77 74 71 71 73 76 79 80 82 83 84 85 84 82 79 75 73 73 73 73 71 70 69 69 68 67 66 64 62 61 60 60 60 61 61 60 58 57 55 54 53 53 52 52 51 50 49 47 46 45 44
73 74 75 76 76 75 75 75 75 76 78 79 79 80 80 82 86 92 98 102 105 105 104 104 103 102 100 98 95 93 92 90 87 84 82 79 77 74 71 71 74 77 80 81 82 83 83 83 82 80 78 76 75 73 71 70 69 68 68 67 66 65 63 61 60 59 59 59 60 60 59 58 57 55 54 53 53 53 52 51 50 49 47 46 45 45
71 73 74 74 74 74 73 73 74 74 75 75 76 78 79 82 86 90 95 99 102 102 102 103 103 102 102 99 96 93 91 90 88 86 83 81 78 76 73 72 72 72 74 75 76 78 79 80 80 80 80 78 75 71 68 67 67 67 67 66 65 64 62 61 59 58 58 58 58 58 58 58 57 55 54 53 53 53 52 51 50 49 48 47 46 45
70 71 73 73 72 72 71 71 71 71 72 73 74 77 80 82 84 87 90 95 98 99 100 102 102 103 103 102 98 95 92 90 89 86 84 82 80 78 76 75 73 72 71 71 71 71 72 75 77 79 80 78 73 69 66 66 66 66 66 65 64 63 62 60 58 57 57 57 57 57 57 57 56 55 54 53 52 52 52 51 50 49 48 47 46 45
68 70 71 71 71 70 69 69 68 69 69 71 73 75 76 78 80 82 85 90 94 98 100 100 101 102 103 104 101 97 93 91 89 87 85 84 83 81 79 77 75 73 71 70 69 69 69 70 73 76 77 75 71 68 66 66 66 66 65 64 63 62 61 59 57 56 56 55 56 56 56 56 56 55 54 53 52 52 52 51 50 49 48 47 46 45
67 68 69 69 69 68 67 67 67 67 68 70 71 72 73 76 78 80 83 87 92 97 100 100 100 100 102 103 102 100 95 92 89 87 86 85 84 82 81 79 76 74 72 70 69 68 67 68 70 71 72 71 69 67 67 66 66 66 65 64 63 62 60 58 57 56 55 54 54 55 55 56 56 55 54 53 52 52 53 51 50 49 48 47 46 45
65 66 68 68 67 66 65 65 65 65 66 67 67 68 71 74 76 79 82 85 89 93 96 97 97 98 100 101 102 101 99 94 91 89 87 85 83 81 80 79 77 75 73 71 69 66 65 66 67 69 70 69 68 67 67 66 66 66 65 65 63 62 60 59 57 56 55 54 54 54 55 55 55 55 54 53 52 52 51 50 49 49 48 47 47 46
63 65 66 66 65 64 64 63 63 62 63 63 64 65 68 71 73 76 80 82 85 89 92 94 96 97 98 99 101 102 102 97 94 91 87 82 79 77 78 76 74 72 71 71 69 67 66 66 66 67 67 67 67 66 66 67 67 67 66 65 64 63 61 59 58 56 55 54 54 54 55 55 56 55 55 54 53 52 51 50 49 49 48 47 47 46
62 63 64 64 63 63 62 61 60 59 60 60 62 64 67 69 71 74 77 80 83 86 91 94 96 96 95 96 98 101 102 100 98 93 88 82 78 76 75 73 71 69 70 71 70 69 68 68 68 67 67 66 66 66 66 67 67 67 67 66 65 64 62 61 60 58 56 55 55 55 55 56 56 56 56 55 54 52 51 50 49 48 48 47 47 47
60 61 62 62 62 61 60 59 58 57 57 57 59 62 64 66 69 72 75 78 81 85 88 91 91 89 89 91 94 97 100 101 99 95 90 84 80 77 75 72 70 70 71 73 73 71 70 69 68 68 68 68 67 67 67 68 68 68 68 67 66 65 64 63 61 59 57 57 57 57 57 57 57 57 57 56 55 54 52 51 50 49 48 48 48 48
59 60 61 61 61 60 59 57 56 55 54 54 56 57 59 62 65 68 71 74 78 81 84 85 85 85 86 89 91 94 98 100 100 96 92 87 83 79 76 73 71 70 72 75 76 74 71 69 68 68 69 69 69 69 69 69 69 69 69 68 67 66 65 65 63 61 60 59 59 58 58 58 58 58 58 57 56 55 54 52 50 49 49 49 49 49
58 59 59 60 59 58 57 56 54 53 52 51 52 54 56 59 62 64 67 70 73 77 80 82 84 86 88 88 89 90 94 97 98 96 93 90 86 82 77 73 70 70 72 76 78 77 74 71 69 69 70 70 71 70 70 70 70 70 70 69 69 68 67 66 64 63 62 61 60 60 59 59 58 58 58 57 57 56 54 52 51 49 48 49 49 49
56 58 58 58 58 57 56 54 53 51 50 49 49 51 53 56 58 61 64 68 73 76 78 81 84 86 86 85 84 87 90 92 94 95 94 92 88 84 79 73 70 69 72 77 79 79 77 73 71 70 70 71 72 72 72 71 71 71 71 70 69 68 67 66 65 64 64 63 62 61 60 59 58 58 57 57 56 55 54 52 49 47 46 46 47 48
55 56 57 57 57 56 55 53 51 49 48 47 47 48 50 52 55 58 62 68 71 73 76 79 82 83 82 81 82 84 86 88 90 92 93 92 90 87 83 77 72 71 73 77 80 81 79 76 73 71 71 71 72 72 73 73 72 72 72 71 70 69 68 67 66 65 65 64 63 62 60 59 58 57 57 56 56 55 53 51 47 44 43 44 45 46
54 55 56 56 56 55 53 52 50 48 47 46 46 46 47 50 53 57 61 65 67 69 72 76 79 80 81 81 81 82 82 83 86 89 89 89 89 90 88 83 78 75 75 77 80 82 81 79 76 73 72 72 72 73 74 74 73 73 72 72 71 70 69 68 67 67 66 65 64 63 61 60 58 57 56 55 55 54 53 51 47 44 44 45 46 47
53 54 55 55 54 54 52 51 49 47 46 45 44 45 46 48 51 55 59 61 63 65 70 73 76 78 79 79 78 77 77 80 83 85 85 85 87 89 90 87 82 79 78 78 80 81 82 82 79 76 74 73 73 74 75 75 74 74 73 72 72 71 70 69 68 68 68 67 66 65 62 60 58 57 56 55 55 55 54 53 51 49 49 49 49 49
52 53 53 53 53 53 51 50 48 46 45 44 43 43 44 46 49 52 55 57 61 65 68 71 74 76 77 76 74 73 74 79 82 83 82 83 85 88 89 87 85 82 81 80 80 82 83 84 82 79 76 75 75 75 76 76 75 75 74 73 72 71 71 70 70 70 69 69 68 66 64 61 59 58 57 57 56 55 55 55 55 55 55 53 52 51
51 52 52 52 52 51 50 49 47 45 44 42 42 42 43 45 47 50 52 56 60 63 66 68 71 73 75 74 74 74 76 78 79 80 80 81 84 87 87 86 85 83 82 82 82 83 84 85 83 81 78 77 77 77 78 77 76 76 75 74 73 72 72 71 71 71 71 70 69 68 66 63 61 59 59 58 57 57 57 57 58 59 60 59 58 56
50 51 51 51 51 50 49 48 46 45 43 41 40 40 41 43 45 48 51 55 58 61 64 66 68 71 73 73 74 75 74 74 74 76 78 80 82 84 85 85 84 83 81 81 82 84 85 85 84 83 81 80 80 79 79 79 78 77 76 75 74 73 73 72 72 72 71 71 70 69 67 65 63 61 60 59 59 58 58 58 59 60 62 63 63 62
49 49 50 50 50 49 48 47 46 44 42 40 39 38 38 40 42 46 50 54 57 60 62 65 67 70 71 72 73 73 71 70 70 73 76 78 80 82 84 84 84 82 79 79 80 82 84 84 84 83 83 82 81 81 81 80 80 79 78 77 76 75 74 73 72 72 72 71 70 70 69 66 64 63 62 61 59 59 59 59 60 61 62 63 64 64
48 48 49 49 49 48 47 46 45 43 41 39 37 36 36 37 39 43 47 52 56 59 62 65 67 70 71 72 72 72 71 69 69 71 73 75 78 81 82 83 83 81 78 77 78 79 81 83 84 84 83 83 83 82 82 82 81 81 80 79 77 76 75 74 73 72 72 71 71 70 69 68 66 64 62 61 60 59 59 59 60 60 61 62 62 63
46 47 47 47 47 47 46 45 44 42 41 39 37 35 34 34 36 40 45 50 54 59 62 65 67 69 71 73 74 74 72 71 70 69 70 73 76 78 80 82 82 81 77 75 75 77 79 81 82 83 83 83 82 82 83 83 82 82 81 81 79 78 77 75 74 72 72 71 71 71 70 68 66 64 63 61 60 59 59 59 59 60 60 60 60 61
45 45 46 46 46 45 45 44 43 42 40 39 37 35 33 33 34 37 41 47 53 58 62 65 68 70 72 73 75 75 73 71 69 68 69 70 73 76 78 81 81 80 77 75 75 76 77 78 80 80 81 81 82 82 83 83 83 82 82 82 81 80 79 77 75 73 72 71 70 70 70 68 67 65 63 61 60 59 59 59 59 59 59 59 59 59
43 44 44 44 44 44 43 43 42 41 40 38 37 35 33 32 32 34 38 44 50 56 61 65 68 71 73 75 76 76 74 71 69 68 69 70 71 73 76 78 79 78 77 77 77 77 76 76 77 78 79 81 82 82 82 82 82 83 83 83 83 82 80 79 77 75 73 71 70 70 69 68 67 66 64 62 60 59 59 59 59 59 58 58 58 58
42 43 43 43 43 43 42 42 41 40 39 38 37 35 34 32 31 32 35 41 47 54 60 65 69 72 74 76 78 77 75 72 70 69 70 70 71 73 74 76 77 77 77 78 78 77 76 75 75 76 77 79 80 81 82 82 82 83 83 83 83 82 81 80 78 76 74 72 70 69 69 68 67 66 64 63 61 60 60 60 59 59 59 58 58 58
40 41 42 42 42 42 41 41 40 40 39 38 37 36 34 32 31 31 33 37 44 51 58 64 69 72 75 78 80 80 78 74 71 69 69 70 71 72 74 75 75 75 76 77 77 77 76 74 73 73 75 76 78 79 80 81 82 82 82 82 81 81 82 81 79 77 75 72 70 69 68 68 67 66 64 63 62 61 61 60 60 59 59 59 58 58
39 39 40 40 41 41 41 40 40 39 39 38 37 36 35 33 32 30 31 34 40 48 55 62 67 72 76 79 82 83 81 77 73 69 67 67 68 71 73 73 74 74 75 75 76 76 75 73 72 71 72 73 75 77 78 80 81 81 81 81 81 82 82 81 79 78 75 73 71 70 68 68 66 65 64 63 62 61 61 60 60 60 60 59 59 58
37 37 38 39 39 39 40 39 39 39 38 38 37 37 36 34 33 31 30 32 37 44 52 59 66 71 75 79 83 85 85 81 76 70 67 64 64 66 69 70 71 71 73 74 75 75 74 72 71 70 71 72 73 75 76 78 79 80 80 80 81 81 80 79 79 77 75 73 72 70 69 67 66 65 64 63 62 61 60 60 60 60 60 60 59 59
35 36 36 37 38 38 38 38 38 38 38 38 37 37 36 35 34 32 31 31 34 40 48 57 64 70 74 79 83 86 87 85 80 74 68 64 61 60 62 65 66 67 69 72 74 74 74 73 71 70 71 71 73 74 75 76 77 78 78 79 79 78 77 78 78 77 75 74 72 71 69 67 66 65 63 62 61 60 60 59 59 60 60 60 59 59
33 34 34 35 36 36 37 37 37 37 37 37 37 37 36 36 35 34 32 31 33 37 44 53 61 68 74 79 83 86 88 87 83 77 71 66 61 56 55 58 61 62 65 69 72 74 75 74 73 72 72 72 72 73 74 74 75 76 77 77 77 77 77 77 77 76 74 73 72 70 69 67 65 64 63 62 61 60 60 60 60 60 61 61 60 60
30 31 32 33 33 34 35 35 36 36 37 37 37 36 36 36 35 35 34 33 33 35 41 49 58 66 72 77 82 85 87 86 83 78 73 68 62 56 51 52 54 57 60 64 69 73 75 76 75 75 73 73 72 73 73 73 74 75 75 76 76 76 76 76 75 73 72 72 71 70 68 66 65 63 62 61 61 60 60 60 61 61 61 61 61 61
28 29 29 30 31 32 33 34 34 35 35 36 36 36 36 36 36 36 35 34 34 35 38 46 54 63 70 76 80 83 85 85 82 78 73 68 63 58 52 49 48 50 52 58 64 69 73 75 76 76 75 74 73 73 73 73 73 74 74 74 74 74 74 73 73 72 71 71 70 68 67 66 64 63 62 61 61 61 61 61 61 61 62 62 61 61
26 26 27 28 29 30 31 32 33 33 34 35 35 36 36 36 36 36 36 36 35 35 37 43 51 60 68 74 78 81 82 82 81 77 71 65 61 59 55 49 46 45 46 50 56 63 69 73 75 76 75 75 74 74 73 73 73 73 73 72 72 72 72 71 71 71 71 70 68 67 66 65 64 63 62 62 62 61 61 61 61 61 61 61 61 61
24 25 26 26 27 27 28 30 31 32 32 33 34 35 36 37 37 37 37 38 37 37 38 41 48 56 64 71 76 79 80 79 78 75 68 59 56 56 56 53 48 45 44 46 51 57 63 69 72 74 75 75 74 74 74 73 72 72 72 71 71 71 70 70 70 70 70 69 68 67 66 64 63 63 62 62 62 62 62 62 62 62 62 61 61 61
23 24 24 24 25 25 26 27 29 30 31 32 33 34 35 36 37 38 38 39 39 39 39 41 46 53 60 67 73 76 77 76 75 72 67 57 51 50 54 54 51 47 45 45 48 52 59 64 69 72 74 74 74 74 74 73 72 72 72 71 71 70 70 69 69 68 68 68 68 67 66 65 64 63 62 62 62 62 63 63 63 63 63 63 62 62
22 22 22 22 22 23 24 25 26 27 29 30 32 33 34 36 37 38 39 40 40 41 41 42 45 50 57 64 70 73 74 73 72 71 67 60 52 47 50 53 53 50 46 44 45 48 54 60 65 69 72 73 74 74 74 73 73 73 72 71 71 71 70 69 68 67 67 67 67 67 66 66 65 63 62 61 61 62 62 63 63 64 64 64 64 64
20 21 21 20 20 21 22 23 24 25 26 28 30 31 33 34 36 37 39 40 41 42 43 44 45 49 55 61 66 70 71 71 70 70 69 64 56 49 48 51 52 51 47 44 42 44 49 55 61 66 70 73 74 74 74 74 74 73 73 72 72 71 70 69 68 68 67 66 66 66 66 65 64 64 63 62 61 61 61 62 63 64 65 65 65 65
Wind_Direction
212 212 211 211 209 208 207 207 206 205 204 202 201 199 198 198 199 199 198 198 197 198 199 200 203 207 211 214 216 217 217 216 214 212 211 210 212 214 215 215 217 218 218 218 218 218 219 218 217 217 217 217 217 218 219 220 219 218 219 219 220 222 223 224 225 226 226 226 227 227 226 226 226 225 225 225 225 225 225 225 226 227 228 229 230 231
211 211 211 211 210 209 208 207 206 205 204 203 201 199 198 198 199 199 198 197 196 196 196 197 201 205 208 210 211 212 212 211 209 207 206 207 210 212 212 213 214 214 213 212 212 212 213 213 214 214 215 216 216 217 219 220 220 219 219 219 220 221 223 224 225 225 226 227 227 228 228 228 228 228 228 228 228 228 228 228 228 229 230 231 232 232
211 211 211 211 210 209 208 208 207 206 205 203 201 199 198 198 199 199 198 197 195 194 193 195 199 202 205 206 206 206 207 207 206 204 203 205 208 210 211 212 211 210 208 208 208 209 210 212 213 214 215 216 217 218 219 220 221 221 220 220 221 221 222 223 224 225 226 226 227 228 229 229 229 229 229 229 229 230 231 231 231 232 232 233 233 233
210 210 211 210 210 209 209 208 207 206 206 204 202 200 198 198 199 199 198 197 195 193 192 194 198 201 203 203 202 202 203 204 204 204 202 202 204 207 209 210 209 208 207 207 208 210 212 214 215 216 217 217 218 219 220 221 222 222 222 222 222 222 222 223 224 224 225 226 227 228 229 230 230 230 230 230 230 231 232 234 235 235 235 234 234 234
210 210 210 210 210 210 209 208 208 207 206 205 203 201 199 199 199 199 198 197 196 194 193 194 197 200 202 202 200 200 201 203 205 206 205 203 202 204 206 208 208 208 208 209 211 213 215 216 217 218 219 219 220 221 221 222 223 224 224 224 223 223 223 224 224 224 225 226 226 228 229 230 230 230 230 230 231 232 234 235 237 237 237 236 235 234
210 210 210 210 210 210 210 209 208 208 207 206 204 202 200 200 200 200 200 199 197 195 194 194 197 200 202 202 201 201 203 207 210 211 210 207 205 204 206 208 210 211 212 214 215 217 218 219 219 220 221 221 222 222 223 224 224 225 226 226 226 225 225 225 225 225 225 225 226 227 228 229 230 230 230 230 231 232 234 235 235 236 237 237 236 235
210 210 210 210 210 210 210 210 209 208 207 206 205 203 201 201 201 202 201 200 198 197 196 196 198 200 202 203 203 203 206 209 213 215 215 212 208 207 208 210 213 215 217 219 220 221 221 221 221 221 222 222 223 223 224 224 225 226 226 227 227 227 227 226 226 226 226 226 226 226 227 229 229 230 230 229 229 230 231 230 229 229 231 234 235 234
210 210 210 210 210 210 210 210 209 209 208 207 206 204 203 203 203 203 203 202 200 199 198 198 199 202 204 204 204 205 206 208 212 215 216 215 212 210 210 212 215 218 221 223 225 225 225 224 223 223 223 223 224 224 224 225 225 226 226 227 228 228 228 228 227 227 227 227 227 227 227 228 229 230 230 229 228 227 226 223 222 223 226 229 232 232
210 210 210 210 210 211 211 211 210 209 209 208 207 206 205 204 205 205 205 204 202 200 199 199 201 203 205 206 206 206 206 207 210 214 217 217 215 214 214 215 218 220 223 225 226 227 226 225 224 224 224 224 224 224 224 225 225 226 226 227 228 228 228 228 228 228 227 227 227 227 227 228 229 230 230 229 227 225 224 223 222 223 225 228 229 230
210 210 210 210 210 210 211 211 211 210 210 209 208 207 206 205 206 207 207 206 205 203 201 200 201 203 205 207 208 208 208 209 210 212 215 218 218 218 219 220 221 223 224 226 226 227 226 225 225 224 224 224 224 224 224 225 225 225 226 227 227 228 228 228 228 228 228 227 227 227 228 228 228 229 229 229 228 226 226 227 228 229 230 230 231 231
210 210 210 210 210 211 210 211 210 210 210 210 209 208 207 206 207 208 209 209 208 206 204 202 202 203 205 207 209 210 210 211 211 212 214 217 220 222 223 223 224 225 225 226 226 226 225 225 224 223 223 223 223 224 224 224 225 225 225 226 226 227 227 228 228 228 228 227 227 227 227 228 228 228 229 229 228 228 228 230 232 233 234 234 233 232
210 210 210 210 211 211 211 211 211 211 211 211 210 210 209 208 207 208 210 211 210 209 207 204 203 203 205 207 209 211 212 212 212 212 213 216 219 221 222 223 224 224 224 225 225 225 224 224 223 222 222 222 222 223 223 224 224 224 224 225 225 225 226 227 227 228 227 227 226 227 227 228 228 228 228 229 229 229 230 231 233 234 235 235 234 232
210 210 210 210 210 211 211 212 212 211 211 211 211 211 210 209 208 209 210 211 212 211 209 207 205 204 204 205 208 210 211 212 212 212 212 213 214 216 219 221 222 223 223 223 223 223 223 222 222 221 221 221 221 222 222 222 222 223 223 224 224 224 225 226 227 227 227 226 226 226 227 227 228 228 228 229 229 229 230 231 233 234 234 234 233 232
210 210 210 210 211 211 211 212 212 212 212 212 212 211 210 209 209 210 211 212 213 212 211 210 207 205 203 204 206 208 209 210 210 210 210 209 209 211 215 218 220 221 221 221 221 221 221 221 221 220 220 220 220 220 220 220 220 221 222 222 223 223 224 225 226 226 226 226 226 226 226 227 228 228 228 228 229 230 230 231 233 234 234 233 233 232
209 210 210 210 211 211 211 212 212 212 212 212 213 212 212 211 210 211 211 213 213 213 213 212 209 206 204 203 203 204 206 207 208 207 207 206 206 207 211 215 218 219 219 219 219 219 219 219 219 219 219 219 218 218 217 217 218 219 220 221 222 222 223 224 225 225 225 225 225 225 226 227 228 228 228 228 229 230 231 232 233 234 235 235 234 234
208 209 209 210 210 211 211 212 212 213 213 214 214 214 213 213 212 211 212 213 213 214 214 214 212 209 206 203 201 201 203 204 205 204 204 203 203 204 206 209 212 214 215 216 216 217 217 217 217 217 217 216 216 215 214 215 216 218 219 219 220 221 222 223 224 224 225 224 225 225 226 226 227 228 228 228 229 230 231 232 233 234 235 236 236 235
207 208 209 210 210 211 211 212 212 213 214 214 214 214 214 213 213 212 212 213 213 214 215 214 213 211 208 205 202 200 200 202 202 202 202 202 201 201 201 202 203 203 205 207 209 211 212 213 214 214 214 213 212 211 212 213 214 216 217 218 219 220 221 222 223 223 224 224 224 225 225 226 226 227 227 228 228 230 231 232 233 234 235 235 236 236
206 208 208 209 210 210 211 211 212 213 214 214 215 215 214 214 214 213 213 213 213 214 215 215 214 213 211 208 205 202 200 201 201 201 201 201 201 200 200 200 200 199 198 199 200 202 205 206 208 209 209 209 209 209 210 212 213 215 216 217 218 219 220 221 222 223 223 224 224 224 224 225 226 226 226 227 227 228 229 230 231 232 233 234 235 235
205 207 207 208 209 209 210 211 212 213 214 214 215 215 215 215 215 215 214 213 213 214 215 216 216 215 213 211 208 204 201 201 201 201 201 201 202 202 201 202 202 201 200 199 199 200 201 203 204 205 206 206 207 208 210 211 213 214 215 216 217 218 219 220 221 222 223 223 224 224 224 224 225 225 226 226 226 227 228 229 230 231 232 233 233 234
204 205 206 207 208 208 209 210 211 212 213 214 215 215 216 216 216 215 215 214 213 213 214 215 216 216 215 214 211 208 204 203 202 202 202 203 204 204 205 206 207 206 205 203 202 202 202 203 204 204 205 206 207 208 210 212 213 214 215 215 216 217 218 220 221 222 223 224 224 224 224 224 224 225 225 225 226 227 228 229 230 231 231 231 232 233
203 204 205 206 207 207 208 209 210 211 213 214 215 215 216 216 216 216 215 215 214 214 214 215 217 217 217 216 214 211 207 205 205 205 204 205 206 207 208 209 211 211 210 209 207 206 207 207 207 207 206 207 207 209 211 212 213 214 215 216 216 217 218 219 221 222 223 224 225 225 225 224 224 224 224 224 225 226 227 229 230 230 231 231 232 232
202 203 204 205 205 206 207 208 209 210 212 213 214 215 216 217 217 217 216 216 215 214 214 215 217 217 218 217 216 213 210 208 207 207 206 207 207 208 209 211 212 212 212 211 209 208 208 208 209 208 208 208 209 210 211 213 214 215 216 216 216 217 218 219 221 222 224 225 226 226 226 226 225 225 224 224 224 225 226 227 229 230 230 231 231 231
200 202 203 204 204 205 206 207 208 209 211 212 214 215 216 217 217 217 217 216 216 215 215 215 216 217 218 218 218 216 213 212 210 209 208 207 207 207 208 209 209 209 209 209 208 206 206 206 206 206 207 208 209 211 212 214 215 216 216 217 217 217 218 219 221 222 224 226 227 228 228 227 226 225 224 224 224 224 225 226 228 229 230 231 231 231
199 200 202 202 203 204 205 205 206 208 210 211 213 214 216 216 217 217 217 217 216 215 215 216 217 218 219 219 219 218 216 215 213 212 210 209 207 206 207 207 207 206 207 207 207 206 205 204 205 205 205 207 208 210 212 214 215 216 217 217 218 218 219 220 221 222 224 225 227 228 228 228 227 226 225 224 224 224 225 226 227 229 230 231 232 232
198 199 200 201 202 203 203 204 205 206 208 210 212 214 216 217 217 217 217 217 217 216 216 217 218 219 220 220 220 219 218 217 215 214 212 210 209 208 208 208 209 209 209 209 208 207 206 205 205 205 206 207 208 210 211 213 215 216 217 218 218 218 219 220 221 222 223 225 226 227 226 227 227 227 225 224 223 224 225 226 227 229 231 232 233 233
197 198 199 200 201 202 202 203 204 205 207 209 212 214 215 216 217 217 218 218 217 217 217 217 218 219 220 220 220 219 219 218 217 216 214 213 211 210 210 210 211 212 212 211 210 208 207 206 206 206 206 208 209 210 211 213 214 216 217 217 218 218 219 219 220 222 223 225 226 226 226 226 226 226 225 224 224 224 225 226 227 229 231 233 234 233
196 197 198 199 200 201 201 202 203 205 207 209 211 213 215 216 216 217 217 217 217 217 217 217 218 219 220 220 220 220 220 220 219 218 216 215 214 213 212 211 212 214 215 214 212 210 208 208 208 207 207 207 209 210 211 213 214 215 216 217 218 218 219 219 219 221 222 224 226 226 226 226 226 226 225 224 224 224 224 225 227 228 231 232 233 232
195 196 197 198 199 200 201 202 203 204 206 209 211 213 214 215 216 216 217 217 217 216 216 217 218 219 220 220 220 220 220 220 220 219 218 217 216 215 214 213 213 215 216 215 213 211 210 210 210 209 208 208 208 210 211 213 214 215 216 217 218 218 219 219 219 220 221 223 225 226 226 226 226 226 225 225 224 224 224 224 225 226 228 229 227 225
194 195 196 197 198 199 200 201 203 204 206 209 211 212 214 215 215 216 216 217 216 216 216 217 218 218 219 220 220 219 219 219 220 220 219 218 217 217 216 216 216 217 217 217 215 213 212 212 212 211 210 209 209 210 212 213 214 215 216 217 218 218 219 219 219 220 221 222 224 225 226 226 226 226 226 225 224 224 223 221 220 221 223 221 217 213
193 194 196 197 198 199 200 201 203 205 207 209 211 212 213 214 215 216 216 216 216 216 216 217 217 218 218 219 218 218 218 218 219 219 218 218 217 217 217 217 218 218 219 218 217 216 215 214 213 213 212 211 210 211 212 213 214 215 216 217 218 218 219 219 219 220 220 222 223 225 226 226 227 227 226 225 225 224 222 219 217 216 218 215 211 207
192 194 195 196 197 198 200 201 203 205 207 209 211 212 213 214 215 215 215 215 215 215 215 215 215 216 217 217 216 216 216 217 218 218 217 217 217 217 217 217 218 219 220 219 219 218 217 215 215 214 213 212 212 212 213 214 215 216 217 217 218 218 219 219 220 220 220 221 223 224 225 226 226 226 227 226 225 224 223 220 218 216 216 216 215 213
191 193 194 196 197 198 200 202 203 205 207 209 211 212 213 214 214 214 214 214 214 214 213 213 213 214 214 215 214 214 215 216 216 217 216 216 216 216 216 216 217 219 220 220 220 219 218 217 216 215 215 214 214 213 214 214 215 216 217 218 218 219 219 220 220 221 221 221 222 223 224 225 226 226 227 226 226 225 224 223 221 219 219 220 221 222
191 193 194 195 197 198 200 202 204 206 207 209 211 212 213 213 213 213 213 212 212 212 212 211 211 211 212 212 212 212 212 212 213 214 215 215 214 214 214 215 216 218 219 220 220 220 220 219 217 217 216 216 216 215 215 215 216 217 218 218 219 219 220 220 221 221 221 222 222 223 224 225 226 227 227 227 227 227 226 225 224 223 223 224 225 227
191 192 194 195 197 199 200 202 204 206 207 209 210 211 212 212 213 213 212 212 211 210 210 209 209 209 209 209 209 209 208 208 211 213 214 214 213 212 213 213 215 216 218 219 221 221 221 219 218 218 218 218 217 217 217 217 217 218 218 219 220 220 220 221 221 222 222 222 223 224 225 226 227 227 228 228 228 228 228 228 227 227 227 227 228 230
190 192 194 195 197 199 200 202 204 206 207 208 210 210 211 212 212 212 212 211 210 209 208 207 207 206 206 205 205 205 205 205 208 211 213 212 212 211 211 212 213 215 216 217 219 220 220 219 219 218 219 219 219 219 218 218 218 219 219 220 220 221 221 222 222 223 223 223 224 224 225 226 227 228 228 228 229 229 229 230 230 229 229 230 230 232
190 192 193 195 197 199 200 202 204 206 207 208 209 210 211 212 212 212 212 211 209 208 206 205 204 204 203 203 202 202 202 203 205 207 210 211 211 211 211 211 213 214 215 216 217 218 219 219 219 219 219 220 220 220 219 219 219 220 220 221 221 221 222 222 223 223 224 224 225 225 226 227 227 228 228 229 229 230 230 231 231 231 231 232 232 233
190 191 193 195 197 198 200 202 204 206 207 208 209 210 211 212 212 212 212 210 209 207 206 204 203 202 201 200 200 199 199 199 200 202 206 209 210 210 210 211 213 214 216 217 217 217 218 218 219 219 219 220 220 220 220 220 220 220 221 221 222 222 223 223 223 224 224 225 226 226 227 227 228 228 229 229 230 230 231 232 232 232 232 233 233 234
189 191 193 195 196 198 200 202 204 205 207 208 210 211 212 212 213 212 212 210 209 207 205 204 202 201 199 198 197 196 195 195 196 199 203 206 208 209 210 211 213 214 216 218 219 219 219 219 220 220 220 220 220 220 220 220 220 221 221 222 222 223 223 223 224 224 225 225 226 227 227 228 228 229 230 230 231 231 232 233 233 233 234 234 234 235
189 191 193 194 196 198 200 202 203 205 207 208 210 211 212 213 213 212 211 210 209 207 205 204 202 200 199 197 195 193 192 191 192 194 197 201 204 207 208 210 212 214 217 219 220 221 220 220 220 220 220 220 220 220 219 219 220 220 221 222 222 223 223 224 224 225 225 226 226 227 228 228 229 230 230 231 232 232 233 233 234 234 235 235 235 235
189 191 192 194 196 198 200 201 203 205 207 208 210 211 212 213 213 212 211 210 208 207 206 204 202 201 199 196 194 191 190 189 190 190 191 194 198 201 205 207 209 212 215 217 219 220 220 220 219 219 218 218 218 218 218 219 219 220 220 221 222 222 223 224 224 225 225 226 227 227 228 228 229 230 230 231 232 232 233 234 234 235 235 235 235 236
189 191 193 194 196 198 200 201 203 205 207 208 209 211 212 212 213 212 211 210 208 207 206 204 203 201 199 197 194 191 190 190 190 190 189 190 192 196 200 203 205 208 211 214 217 218 219 219 218 217 216 216 217 217 217 218 218 219 220 220 221 222 223 223 224 224 225 226 226 227 228 228 229 230 230 231 232 232 233 234 234 235 235 235 235 236
188 191 193 195 197 198 200 202 203 205 207 208 209 210 211 212 212 212 211 210 208 207 206 205 203 202 200 198 195 193 192 192 192 192 191 190 191 193 195 198 202 205 208 211 214 216 217 217 216 215 215 215 215 215 216 217 217 218 219 220 220 221 222 223 224 224 225 225 226 227 228 228 229 229 230 231 232 232 233 233 234 234 234 234 234 235
189 191 193 195 197 199 200 202 204 205 207 208 209 211 212 212 213 212 212 210 208 207 206 205 204 202 201 199 197 195 195 195 194 194 193 193 193 193 193 195 198 202 206 208 210 213 215 215 215 215 215 214 214 214 215 215 216 217 218 219 220 220 221 222 223 223 224 225 225 226 227 228 228 229 230 230 231 232 232 233 233 233 233 233 234 234
189 191 193 196 198 200 201 203 204 206 207 208 210 211 212 213 213 213 212 211 209 207 206 205 204 203 202 200 199 198 198 198 197 196 196 196 196 194 193 194 196 199 203 205 208 211 213 214 215 215 215 214 214 214 214 215 215 216 217 218 219 219 220 221 222 222 223 224 225 226 226 227 228 228 229 230 231 232 232 233 233 233 233 233 234 234
189 191 194 196 198 200 202 204 205 207 208 209 210 212 213 213 214 214 213 212 210 208 206 205 205 204 203 202 201 200 201 201 200 199 199 199 198 196 194 193 194 196 200 203 206 209 212 213 214 215 214 214 213 214 214 214 215 216 216 217 218 218 219 220 220 221 222 223 224 225 225 226 227 227 228 229 230 231 232 232 233 233 233 233 234 234
189 191 194 196 199 201 203 205 207 208 210 211 212 213 214 215 215 215 215 214 212 209 207 206 205 205 204 203 203 203 203 204 203 202 202 202 201 199 196 194 193 193 197 201 204 207 210 212 213 214 214 214 213 214 214 214 215 215 216 216 217 218 218 219 219 220 221 222 222 223 224 224 225 226 227 228 229 230 231 232 232 232 233 233 233 234
189 192 194 197 200 203 205 207 209 211 212 213 214 215 216 216 217 217 217 216 214 211 209 206 205 205 205 205 205 205 206 206 205 204 204 204 203 202 200 197 194 193 195 198 201 204 207 210 212 213 213 214 214 214 214 214 214 215 215 216 216 217 218 218 219 219 220 220 221 221 222 223 224 225 226 227 228 229 230 231 232 232 232 233 233 233
190 193 195 198 201 204 207 209 211 213 214 215 216 217 217 218 218 218 218 217 216 213 210 208 206 206 206 206 206 207 207 208 207 206 205 204 203 203 203 201 198 196 195 196 198 201 204 207 209 211 212 213 214 214 214 214 214 214 215 215 216 216 217 218 219 219 219 219 219 220 220 221 223 224 225 226 227 228 229 230 231 232 232 232 233 233
191 194 197 199 202 205 209 211 213 215 216 217 218 219 219 219 220 220 219 219 217 215 212 209 207 206 206 207 207 208 209 209 208 207 204 200 199 201 204 204 202 199 196 195 196 198 201 204 207 209 210 212 213 214 214 214 214 215 215 215 215 216 217 218 218 219 219 219 219 219 219 220 221 223 224 225 226 227 228 229 229 230 231 231 232 233
193 196 198 201 204 207 210 213 215 217 218 219 220 220 220 220 220 220 220 219 218 216 213 210 208 206 206 207 208 209 210 210 210 208 205 198 194 197 204 205 204 202 199 196 194 195 198 201 205 208 209 210 212 213 214 215 215 215 215 216 216 216 217 217 218 218 218 219 219 219 219 219 220 221 223 224 225 226 227 228 228 229 229 230 230 231
195 198 200 202 204 208 211 214 216 217 219 220 220 220 221 220 220 220 219 219 218 216 214 211 209 207 206 207 208 209 210 210 210 209 207 200 194 194 201 206 206 205 202 198 194 193 195 198 202 206 208 210 211 212 214 215 216 216 216 217 217 217 217 217 217 217 217 218 218 219 219 219 220 221 222 223 224 226 227 227 228 228 229 229 229 230
Height
5412 5417 5422 5428 5435 5443 5449 5454 5460 5466 5473 5480 5488 5495 5502 5509 5515 5521 5527 5532 5537 5542 5548 5553 5557 5562 5567 5572 5577 5582 5587 5593 5598 5601 5603 5605 5609 5616 5622 5627 5631 5634 5638 5642 5646 5650 5653 5655 5658 5662 5666 5670 5674 5679 5683 5686 5689 5692 5695 5699 5702 5705 5708 5711 5714 5717 5720 5723 5727 5730 5733 5735 5737 5739 5742 5745 5747 5749 5752 5754 5756 5758 5759 5761 5763 5765
5408 5413 5419 5426 5433 5439 5445 5450 5456 5463 5470 5476 5483 5490 5497 5504 5511 5517 5523 5528 5532 5537 5542 5547 5553 5558 5563 5569 5574 5579 5584 5589 5594 5597 5598 5599 5604 5611 5618 5623 5627 5630 5634 5638 5642 5646 5649 5652 5655 5659 5663 5666 5671 5675 5679 5683 5687 5689 5692 5695 5699 5702 5705 5708 5711 5714 5718 5721 5724 5727 5731 5733 5735 5737 5740 5742 5744 5747 5750 5752 5753 5755 5756 5758 5760 5762
5405 5411 5417 5424 5429 5435 5441 5446 5452 5459 5464 5471 5478 5485 5492 5499 5506 5511 5517 5522 5527 5532 5537 5542 5548 5554 5560 5565 5570 5575 5580 5585 5589 5591 5593 5595 5599 5606 5612 5618 5622 5626 5630 5634 5638 5641 5645 5648 5652 5655 5659 5663 5667 5672 5676 5679 5683 5687 5690 5693 5696 5699 5702 5705 5709 5712 5715 5718 5721 5724 5728 5730 5732 5734 5737 5739 5742 5744 5747 5750 5752 5753 5754 5755 5757 5759
5402 5409 5414 5419 5425 5431 5436 5442 5448 5453 5459 5465 5473 5480 5488 5494 5500 5505 5510 5516 5521 5527 5532 5537 5544 5550 5556 5560 5565 5570 5574 5579 5583 5585 5588 5590 5595 5601 5607 5613 5618 5621 5625 5629 5633 5638 5642 5645 5649 5652 5656 5660 5664 5669 5673 5676 5680 5684 5688 5690 5694 5697 5700 5703 5706 5709 5712 5715 5719 5722 5724 5727 5729 5732 5734 5737 5739 5742 5745 5748 5750 5751 5752 5753 5754 5756
5400 5405 5410 5415 5421 5427 5432 5437 5442 5448 5454 5461 5469 5476 5483 5489 5494 5499 5505 5511 5516 5522 5527 5532 5539 5546 5552 5555 5559 5564 5569 5573 5577 5580 5583 5586 5590 5596 5602 5608 5613 5617 5620 5625 5629 5634 5638 5642 5646 5650 5654 5658 5662 5666 5670 5674 5678 5682 5685 5689 5691 5694 5697 5700 5703 5706 5709 5713 5716 5719 5721 5724 5726 5728 5731 5734 5737 5740 5743 5744 5746 5748 5750 5751 5752 5753
5397 5402 5406 5412 5418 5424 5428 5433 5438 5444 5450 5458 5465 5472 5478 5483 5488 5494 5500 5507 5512 5517 5522 5527 5534 5541 5546 5550 5554 5558 5563 5567 5571 5574 5578 5582 5586 5592 5598 5603 5608 5612 5616 5620 5625 5629 5634 5639 5643 5647 5651 5655 5659 5663 5667 5671 5675 5679 5682 5686 5689 5692 5695 5698 5701 5704 5707 5710 5713 5716 5718 5721 5723 5725 5729 5732 5735 5738 5740 5742 5743 5745 5748 5750 5750 5750
5393 5398 5403 5409 5415 5419 5424 5429 5435 5441 5448 5454 5461 5467 5473 5478 5483 5489 5496 5502 5507 5512 5517 5523 5529 5536 5541 5545 5549 5553 5557 5562 5566 5570 5574 5578 5582 5587 5593 5598 5603 5607 5611 5616 5620 5626 5631 5636 5640 5644 5649 5653 5657 5661 5665 5669 5672 5676 5679 5683 5686 5689 5692 5695 5698 5701 5704 5707 5710 5713 5715 5718 5720 5723 5726 5730 5733 5736 5738 5739 5741 5742 5745 5749 5750 5750
5390 5395 5402 5407 5412 5416 5421 5427 5432 5438 5444 5451 5457 5463 5469 5474 5480 5485 5490 5495 5501 5507 5513 5519 5525 5531 5536 5540 5544 5549 5553 5558 5563 5567 5570 5575 5579 5584 5589 5594 5599 5603 5607 5612 5617 5622 5628 5633 5637 5642 5646 5650 5654 5659 5662 5666 5669 5673 5676 5679 5683 5686 5689 5692 5695 5698 5701 5704 5707 5710 5713 5715 5718 5721 5724 5728 5731 5734 5736 5737 5739 5741 5743 5747 5749 5750
5388 5394 5399 5404 5409 5414 5419 5425 5430 5436 5442 5448 5454 5460 5466 5471 5476 5480 5485 5491 5497 5503 5509 5515 5521 5527 5531 5535 5540 5544 5549 5554 5559 5563 5567 5571 5576 5581 5586 5591 5595 5600 5604 5609 5614 5619 5625 5630 5635 5639 5644 5648 5652 5656 5660 5663 5666 5670 5673 5676 5679 5683 5686 5689 5692 5695 5699 5701 5704 5707 5710 5713 5716 5719 5722 5725 5728 5731 5733 5734 5736 5739 5741 5744 5746 5748
5385 5390 5395 5400 5404 5410 5416 5422 5428 5434 5439 5445 5451 5457 5462 5468 5472 5476 5481 5487 5493 5499 5504 5510 5516 5522 5527 5531 5535 5540 5545 5550 5555 5560 5564 5569 5573 5579 5584 5588 5593 5597 5602 5607 5612 5617 5622 5627 5633 5639 5642 5646 5650 5654 5657 5660 5664 5667 5670 5673 5677 5680 5683 5686 5689 5693 5696 5699 5701 5704 5707 5710 5713 5716 5719 5722 5725 5728 5729 5731 5734 5736 5739 5741 5744 5746
5382 5387 5392 5397 5402 5407 5413 5418 5424 5430 5436 5441 5447 5453 5459 5464 5469 5474 5478 5483 5488 5493 5499 5505 5511 5517 5523 5528 5532 5537 5542 5548 5553 5557 5562 5566 5571 5576 5581 5586 5590 5594 5599 5604 5609 5614 5619 5625 5631 5635 5639 5644 5648 5651 5654 5657 5660 5664 5667 5670 5674 5677 5680 5683 5686 5690 5693 5696 5699 5701 5704 5707 5710 5713 5716 5719 5722 5724 5727 5729 5732 5734 5736 5738 5741 5743
5379 5384 5390 5395 5400 5406 5411 5416 5421 5427 5433 5439 5445 5450 5456 5462 5467 5471 5474 5478 5483 5488 5494 5500 5506 5513 5519 5524 5529 5534 5540 5545 5550 5554 5559 5564 5569 5574 5579 5583 5587 5591 5596 5601 5605 5610 5616 5622 5627 5631 5636 5641 5645 5648 5651 5654 5657 5660 5664 5667 5670 5674 5677 5680 5684 5687 5690 5693 5695 5698 5701 5704 5707 5710 5714 5716 5719 5722 5724 5727 5729 5732 5734 5736 5739 5741
5377 5382 5387 5393 5398 5403 5409 5414 5421 5427 5433 5438 5443 5448 5453 5458 5463 5467 5470 5474 5478 5484 5490 5496 5502 5509 5515 5521 5527 5532 5538 5543 5547 5551 5556 5562 5567 5571 5575 5579 5583 5588 5593 5597 5602 5607 5613 5618 5623 5629 5634 5638 5642 5645 5648 5651 5654 5657 5660 5664 5667 5670 5674 5677 5680 5684 5687 5689 5692 5695 5698 5701 5704 5708 5711 5714 5716 5719 5721 5724 5727 5729 5731 5734 5736 5738
5375 5380 5386 5391 5396 5401 5406 5412 5419 5425 5430 5434 5438 5441 5445 5451 5457 5463 5467 5471 5475 5480 5486 5492 5499 5505 5512 5518 5524 5530 5536 5541 5545 5549 5554 5559 5564 5568 5572 5576 5579 5583 5588 5593 5598 5603 5608 5614 5620 5626 5631 5635 5638 5641 5644 5647 5651 5654 5657 5660 5664 5668 5671 5674 5677 5680 5684 5686 5689 5692 5695 5698 5702 5705 5708 5711 5714 5716 5719 5721 5723 5725 5728 5730 5732 5734
5374 5379 5384 5390 5395 5400 5405 5411 5416 5421 5425 5428 5432 5437 5442 5449 5456 5462 5465 5469 5473 5478 5484 5490 5496 5502 5508 5514 5521 5527 5533 5538 5543 5547 5552 5555 5560 5565 5570 5574 5577 5580 5584 5589 5594 5599 5604 5610 5617 5622 5627 5631 5635 5638 5640 5644 5647 5651 5654 5657 5661 5664 5668 5671 5674 5677 5680 5683 5686 5689 5692 5695 5699 5702 5705 5708 5711 5714 5715 5718 5720 5723 5725 5727 5729 5732
5372 5377 5383 5387 5393 5398 5404 5409 5414 5419 5422 5427 5433 5439 5446 5452 5457 5460 5463 5465 5469 5474 5481 5487 5492 5498 5504 5510 5516 5523 5529 5534 5539 5544 5548 5551 5555 5560 5566 5572 5577 5580 5583 5586 5590 5595 5601 5607 5613 5618 5623 5627 5631 5633 5636 5640 5644 5647 5651 5654 5658 5661 5664 5668 5671 5674 5677 5680 5683 5686 5689 5693 5696 5699 5702 5705 5708 5710 5713 5715 5718 5720 5723 5725 5727 5729
5371 5376 5381 5386 5392 5397 5403 5408 5413 5417 5422 5428 5434 5440 5445 5449 5452 5454 5457 5461 5466 5472 5479 5483 5488 5494 5500 5506 5512 5519 5524 5529 5534 5539 5543 5547 5552 5557 5562 5567 5573 5577 5582 5586 5589 5593 5599 5604 5609 5614 5619 5623 5626 5629 5633 5636 5640 5644 5648 5651 5655 5659 5662 5665 5668 5671 5674 5677 5680 5683 5686 5690 5693 5696 5699 5703 5705 5708 5710 5713 5715 5718 5720 5723 5724 5727
5371 5376 5381 5386 5392 5397 5403 5408 5412 5417 5421 5426 5431 5435 5439 5442 5445 5449 5454 5460 5466 5472 5476 5480 5484 5490 5495 5501 5508 5514 5519 5524 5529 5534 5539 5544 5549 5554 5559 5563 5567 5571 5576 5581 5586 5591 5596 5601 5605 5610 5614 5619 5622 5625 5629 5633 5636 5640 5644 5648 5652 5656 5659 5661 5664 5668 5671 5674 5677 5680 5684 5687 5690 5694 5697 5699 5703 5705 5708 5710 5712 5715 5718 5720 5722 5724
5370 5375 5380 5386 5391 5396 5401 5407 5411 5415 5420 5424 5428 5431 5435 5439 5444 5450 5456 5461 5466 5470 5473 5476 5481 5486 5492 5497 5503 5508 5513 5519 5525 5531 5536 5541 5546 5551 5555 5559 5564 5568 5573 5577 5581 5586 5591 5596 5601 5606 5610 5614 5618 5621 5625 5629 5633 5637 5641 5645 5649 5652 5656 5659 5662 5665 5668 5671 5674 5678 5681 5684 5687 5690 5694 5697 5699 5702 5705 5707 5709 5712 5715 5718 5720 5723
5369 5375 5380 5385 5390 5395 5401 5405 5409 5413 5417 5420 5424 5428 5433 5438 5444 5449 5454 5459 5462 5465 5469 5473 5479 5484 5489 5494 5499 5504 5510 5517 5523 5529 5533 5537 5542 5547 5552 5556 5560 5565 5570 5575 5579 5583 5588 5592 5597 5602 5606 5610 5614 5618 5622 5626 5630 5634 5638 5642 5646 5649 5653 5656 5659 5662 5665 5669 5672 5675 5678 5681 5684 5688 5691 5694 5697 5699 5703 5704 5707 5709 5713 5715 5718 5720
5369 5374 5379 5384 5390 5395 5400 5404 5408 5411 5415 5418 5423 5427 5432 5436 5440 5445 5449 5453 5458 5462 5467 5472 5477 5481 5485 5490 5495 5501 5508 5515 5520 5525 5529 5533 5538 5543 5548 5553 5557 5562 5567 5572 5576 5580 5585 5589 5594 5598 5602 5606 5610 5614 5618 5623 5627 5631 5635 5639 5643 5646 5650 5653 5656 5659 5663 5666 5669 5672 5675 5678 5681 5684 5688 5691 5694 5696 5699 5701 5704 5707 5710 5714 5717 5718
5369 5374 5379 5384 5389 5394 5398 5402 5406 5410 5414 5418 5423 5427 5430 5433 5437 5441 5445 5450 5456 5462 5467 5472 5474 5477 5481 5486 5492 5498 5504 5510 5515 5519 5524 5529 5535 5540 5545 5549 5554 5559 5564 5568 5573 5577 5582 5586 5590 5594 5598 5602 5606 5611 5615 5619 5623 5628 5632 5636 5640 5644 5647 5651 5654 5657 5660 5663 5666 5669 5672 5675 5678 5682 5685 5688 5691 5694 5697 5699 5702 5706 5709 5711 5714 5716
5368 5373 5379 5384 5388 5393 5397 5401 5405 5409 5413 5417 5421 5424 5426 5430 5434 5439 5444 5449 5455 5460 5464 5467 5469 5473 5478 5484 5489 5494 5500 5505 5509 5514 5520 5526 5532 5536 5541 5546 5551 5556 5560 5565 5569 5573 5578 5581 5585 5589 5594 5598 5603 5607 5611 5615 5620 5624 5629 5633 5637 5641 5645 5649 5652 5654 5658 5661 5664 5668 5670 5673 5675 5678 5682 5685 5688 5691 5694 5697 5700 5704 5706 5709 5711 5713
5368 5373 5378 5382 5387 5391 5396 5400 5404 5408 5411 5415 5418 5420 5423 5427 5432 5436 5441 5446 5451 5456 5459 5462 5466 5472 5478 5483 5488 5492 5497 5501 5506 5512 5518 5524 5528 5532 5537 5542 5548 5552 5557 5561 5565 5569 5574 5577 5581 5584 5589 5594 5599 5603 5608 5612 5616 5621 5625 5630 5634 5638 5642 5646 5649 5651 5655 5659 5663 5665 5668 5671 5673 5676 5678 5681 5685 5688 5691 5694 5698 5702 5704 5706 5707 5709
5367 5372 5376 5381 5385 5390 5394 5399 5403 5406 5410 5414 5417 5419 5423 5427 5430 5434 5439 5444 5449 5453 5458 5463 5469 5474 5478 5480 5484 5488 5493 5497 5502 5509 5515 5520 5524 5528 5533 5539 5544 5548 5552 5557 5561 5566 5570 5574 5578 5582 5586 5590 5595 5599 5604 5609 5613 5618 5622 5627 5631 5635 5639 5643 5646 5650 5654 5657 5659 5660 5662 5666 5670 5673 5675 5678 5681 5685 5689 5692 5695 5699 5701 5703 5704 5706
5366 5371 5375 5380 5385 5389 5394 5398 5402 5406 5409 5412 5415 5419 5422 5425 5429 5433 5438 5443 5447 5452 5457 5463 5467 5469 5471 5474 5478 5483 5488 5493 5499 5505 5511 5515 5520 5524 5530 5536 5540 5544 5548 5554 5559 5563 5567 5571 5575 5579 5583 5587 5592 5596 5601 5605 5610 5614 5619 5624 5628 5632 5636 5639 5643 5647 5651 5653 5655 5657 5659 5662 5666 5669 5672 5675 5678 5682 5686 5690 5693 5696 5698 5700 5701 5703
5366 5370 5375 5379 5384 5388 5393 5397 5401 5405 5408 5411 5414 5417 5420 5423 5427 5432 5436 5440 5444 5448 5453 5457 5460 5462 5464 5469 5475 5481 5485 5491 5497 5503 5508 5512 5517 5522 5527 5532 5536 5540 5544 5550 5556 5560 5564 5567 5571 5575 5579 5584 5589 5593 5598 5602 5607 5611 5616 5621 5625 5629 5633 5636 5640 5644 5648 5650 5652 5654 5656 5659 5662 5665 5669 5672 5676 5680 5684 5688 5690 5693 5696 5698 5699 5702
5365 5369 5374 5379 5383 5387 5392 5396 5400 5404 5407 5410 5413 5416 5419 5422 5426 5430 5433 5435 5438 5443 5448 5452 5455 5459 5464 5470 5475 5479 5484 5489 5495 5500 5504 5510 5516 5520 5524 5528 5532 5536 5541 5547 5552 5556 5560 5564 5568 5572 5576 5580 5585 5590 5595 5599 5604 5609 5613 5618 5622 5626 5630 5634 5637 5640 5644 5646 5649 5651 5654 5657 5660 5663 5666 5670 5674 5677 5681 5684 5688 5691 5694 5696 5698 5700
5364 5369 5374 5378 5382 5387 5391 5395 5399 5402 5406 5409 5412 5414 5418 5421 5424 5427 5429 5431 5436 5442 5447 5450 5454 5458 5464 5468 5472 5476 5482 5488 5492 5496 5502 5508 5514 5517 5520 5524 5529 5534 5538 5543 5548 5552 5557 5561 5565 5569 5573 5577 5582 5587 5592 5596 5601 5605 5610 5614 5619 5624 5628 5632 5635 5637 5640 5643 5646 5649 5651 5654 5658 5660 5664 5667 5671 5674 5678 5681 5685 5689 5692 5694 5695 5697
5364 5369 5373 5378 5382 5386 5390 5394 5397 5401 5404 5407 5410 5413 5416 5419 5421 5424 5426 5430 5436 5441 5444 5447 5451 5456 5461 5464 5469 5474 5481 5486 5489 5494 5500 5506 5511 5514 5517 5522 5527 5532 5535 5539 5544 5549 5554 5558 5561 5565 5569 5574 5579 5584 5589 5594 5598 5603 5607 5612 5616 5621 5625 5629 5632 5634 5638 5640 5643 5646 5649 5652 5655 5658 5661 5664 5668 5671 5675 5678 5682 5685 5688 5689 5691 5693
5364 5369 5373 5377 5381 5385 5389 5393 5396 5400 5403 5406 5409 5412 5414 5417 5419 5422 5425 5430 5435 5438 5439 5443 5448 5453 5458 5463 5468 5474 5480 5483 5487 5491 5498 5504 5508 5510 5514 5520 5525 5528 5532 5536 5541 5545 5550 5553 5557 5562 5566 5572 5577 5582 5586 5591 5595 5600 5604 5609 5613 5618 5622 5626 5628 5631 5635 5638 5640 5643 5646 5649 5652 5655 5659 5662 5665 5668 5671 5675 5678 5681 5684 5685 5687 5688
5364 5369 5373 5377 5380 5384 5388 5392 5395 5399 5402 5404 5407 5410 5413 5415 5418 5421 5424 5428 5431 5433 5436 5440 5445 5450 5455 5461 5466 5471 5475 5479 5484 5489 5496 5501 5504 5507 5512 5518 5522 5525 5529 5534 5538 5541 5545 5549 5554 5560 5565 5570 5574 5579 5584 5588 5593 5597 5601 5605 5610 5614 5619 5622 5624 5627 5631 5634 5637 5640 5644 5647 5649 5653 5656 5660 5663 5665 5668 5671 5675 5678 5680 5683 5684 5685
5365 5369 5372 5376 5380 5384 5387 5391 5394 5397 5400 5403 5406 5408 5411 5413 5416 5419 5421 5424 5427 5430 5435 5439 5444 5449 5453 5458 5463 5467 5471 5477 5483 5488 5493 5497 5501 5505 5510 5515 5519 5522 5526 5531 5535 5538 5542 5547 5553 5558 5563 5568 5572 5576 5581 5586 5590 5594 5598 5602 5606 5610 5615 5618 5620 5624 5627 5631 5634 5638 5641 5644 5646 5649 5654 5657 5659 5662 5664 5668 5671 5674 5677 5679 5681 5682
5364 5368 5372 5376 5379 5383 5386 5390 5393 5396 5399 5402 5404 5407 5409 5412 5414 5417 5419 5422 5425 5429 5433 5438 5442 5446 5450 5455 5460 5465 5471 5478 5483 5486 5489 5493 5497 5502 5507 5513 5516 5519 5524 5528 5532 5535 5539 5545 5551 5556 5561 5565 5569 5574 5579 5583 5587 5591 5594 5599 5603 5607 5611 5614 5617 5620 5624 5628 5631 5634 5638 5640 5644 5648 5652 5654 5656 5659 5661 5664 5667 5670 5673 5675 5677 5679
5364 5368 5372 5375 5379 5382 5386 5389 5392 5395 5398 5400 5403 5405 5408 5410 5412 5414 5417 5419 5423 5426 5430 5434 5437 5442 5446 5451 5457 5463 5469 5476 5480 5482 5485 5490 5494 5499 5504 5509 5513 5516 5520 5525 5529 5532 5536 5542 5548 5552 5557 5561 5566 5571 5576 5580 5584 5588 5591 5595 5599 5604 5607 5611 5614 5618 5622 5625 5628 5631 5634 5637 5641 5645 5648 5651 5653 5656 5659 5661 5664 5666 5669 5672 5674 5676
5364 5368 5372 5375 5379 5382 5385 5388 5391 5394 5396 5399 5401 5404 5406 5408 5410 5413 5415 5417 5420 5423 5427 5430 5434 5439 5444 5449 5454 5460 5466 5472 5476 5479 5482 5487 5491 5496 5501 5506 5510 5513 5517 5521 5525 5528 5533 5539 5544 5548 5553 5558 5563 5568 5572 5576 5581 5585 5589 5593 5597 5601 5604 5608 5612 5615 5619 5622 5625 5629 5632 5635 5639 5643 5645 5647 5650 5653 5656 5658 5661 5663 5666 5669 5671 5674
5365 5368 5372 5375 5378 5381 5384 5387 5390 5393 5395 5398 5400 5402 5405 5407 5409 5411 5413 5415 5418 5421 5424 5428 5432 5436 5441 5446 5451 5457 5463 5468 5473 5477 5481 5484 5489 5493 5498 5503 5507 5510 5514 5518 5522 5526 5530 5536 5542 5546 5551 5555 5559 5564 5569 5574 5579 5583 5587 5591 5594 5598 5602 5605 5609 5613 5616 5620 5623 5626 5629 5634 5637 5640 5643 5645 5648 5650 5653 5655 5658 5660 5663 5665 5668 5671
5365 5368 5371 5375 5378 5381 5384 5387 5389 5392 5394 5397 5399 5401 5403 5405 5407 5409 5411 5414 5416 5419 5422 5426 5430 5434 5438 5443 5449 5455 5461 5467 5472 5476 5479 5483 5487 5491 5496 5501 5505 5508 5511 5515 5519 5523 5528 5534 5540 5545 5549 5553 5556 5561 5566 5571 5576 5580 5584 5587 5591 5595 5599 5603 5606 5610 5614 5617 5620 5624 5627 5631 5634 5637 5640 5643 5645 5647 5650 5652 5655 5657 5660 5662 5665 5667
5365 5368 5371 5374 5378 5380 5383 5386 5388 5391 5393 5396 5398 5400 5402 5404 5406 5408 5410 5412 5414 5417 5420 5424 5427 5431 5436 5441 5446 5453 5459 5465 5470 5474 5477 5480 5484 5489 5493 5498 5503 5506 5509 5512 5517 5521 5527 5532 5537 5541 5545 5549 5554 5559 5564 5569 5574 5577 5581 5585 5589 5594 5597 5600 5604 5608 5611 5614 5618 5621 5625 5628 5631 5634 5637 5639 5642 5644 5647 5649 5652 5654 5657 5659 5662 5664
5365 5368 5371 5374 5377 5380 5382 5385 5387 5390 5392 5394 5397 5399 5401 5403 5405 5407 5409 5410 5413 5415 5418 5422 5425 5429 5433 5438 5444 5450 5456 5462 5466 5470 5474 5478 5482 5486 5490 5495 5499 5503 5506 5510 5514 5519 5525 5529 5534 5539 5542 5547 5551 5556 5562 5566 5570 5574 5578 5583 5587 5591 5594 5597 5601 5605 5609 5612 5615 5619 5622 5625 5628 5631 5634 5636 5639 5641 5644 5646 5649 5652 5654 5656 5659 5661
5366 5369 5371 5374 5377 5379 5382 5384 5387 5389 5391 5394 5396 5398 5400 5402 5404 5406 5408 5409 5412 5414 5417 5420 5424 5428 5432 5436 5442 5447 5453 5458 5462 5466 5471 5475 5479 5483 5487 5492 5496 5499 5503 5507 5512 5517 5522 5526 5531 5535 5540 5544 5549 5554 5559 5563 5567 5571 5575 5579 5583 5586 5589 5593 5598 5602 5606 5609 5613 5616 5619 5622 5625 5628 5630 5633 5636 5638 5640 5644 5646 5649 5652 5654 5656 5658
5366 5369 5371 5374 5376 5379 5381 5384 5386 5388 5390 5393 5395 5397 5399 5401 5403 5405 5407 5409 5410 5413 5415 5419 5422 5426 5430 5435 5439 5444 5449 5453 5458 5463 5468 5472 5476 5479 5484 5488 5492 5496 5500 5504 5509 5514 5519 5524 5529 5533 5537 5541 5545 5549 5554 5559 5564 5568 5572 5575 5579 5582 5587 5592 5596 5599 5603 5606 5610 5613 5616 5619 5622 5625 5627 5630 5633 5636 5638 5641 5644 5646 5649 5651 5654 5656
5366 5368 5371 5373 5376 5378 5381 5383 5385 5388 5390 5392 5394 5396 5398 5400 5402 5404 5406 5408 5410 5412 5414 5417 5420 5424 5428 5432 5437 5441 5445 5449 5454 5459 5464 5469 5473 5477 5480 5484 5488 5493 5497 5502 5507 5511 5516 5522 5526 5530 5534 5538 5541 5546 5550 5555 5560 5564 5569 5572 5575 5579 5585 5589 5592 5595 5599 5603 5606 5609 5613 5616 5619 5622 5624 5627 5630 5633 5635 5639 5641 5643 5645 5648 5650 5653
5366 5368 5370 5373 5375 5378 5380 5382 5384 5387 5389 5391 5393 5395 5397 5399 5401 5403 5405 5407 5409 5411 5413 5416 5419 5423 5426 5430 5434 5438 5441 5445 5450 5456 5461 5466 5470 5474 5478 5482 5485 5489 5494 5499 5504 5508 5513 5518 5523 5528 5531 5535 5539 5544 5548 5552 5556 5561 5565 5569 5572 5576 5580 5583 5587 5591 5596 5600 5604 5607 5611 5614 5616 5619 5623 5625 5628 5630 5633 5635 5637 5640 5642 5644 5647 5649
5365 5368 5370 5372 5375 5377 5379 5381 5384 5386 5388 5390 5392 5394 5396 5398 5400 5402 5404 5406 5408 5410 5412 5415 5418 5422 5425 5429 5432 5435 5439 5442 5447 5453 5459 5464 5469 5473 5476 5480 5484 5488 5492 5497 5502 5506 5510 5515 5520 5524 5529 5533 5537 5541 5544 5548 5553 5557 5561 5565 5569 5573 5576 5580 5584 5590 5594 5598 5601 5605 5608 5611 5614 5617 5620 5623 5624 5627 5629 5632 5634 5636 5639 5641 5643 5646
5365 5368 5370 5372 5374 5376 5378 5380 5382 5384 5387 5389 5391 5393 5394 5396 5398 5400 5403 5405 5407 5409 5411 5414 5417 5420 5423 5426 5430 5434 5437 5441 5446 5451 5457 5462 5467 5471 5475 5478 5482 5486 5490 5495 5499 5504 5507 5512 5516 5521 5526 5530 5534 5537 5540 5544 5549 5553 5557 5561 5566 5570 5574 5578 5583 5587 5591 5594 5598 5602 5605 5608 5611 5614 5616 5619 5620 5623 5625 5628 5630 5633 5635 5637 5639 5642
5365 5367 5369 5371 5373 5375 5377 5379 5381 5383 5385 5387 5389 5391 5393 5395 5397 5399 5401 5403 5405 5408 5410 5413 5415 5418 5421 5425 5429 5432 5435 5439 5444 5449 5455 5461 5466 5470 5474 5477 5480 5484 5488 5492 5497 5501 5504 5509 5514 5518 5523 5527 5530 5534 5537 5541 5546 5550 5554 5559 5563 5568 5572 5576 5579 5583 5586 5590 5594 5598 5601 5605 5608 5610 5612 5614 5617 5619 5622 5625 5627 5629 5631 5634 5636 5639
5364 5366 5369 5370 5372 5374 5376 5378 5380 5382 5384 5385 5388 5389 5391 5393 5395 5397 5399 5402 5404 5406 5409 5411 5414 5416 5420 5424 5427 5430 5434 5437 5442 5448 5454 5461 5466 5469 5472 5475 5479 5482 5486 5490 5494 5498 5502 5506 5510 5515 5520 5524 5527 5530 5534 5539 5544 5548 5551 5556 5560 5564 5568 5572 5575 5579 5583 5586 5590 5594 5597 5600 5603 5606 5608 5611 5614 5617 5619 5622 5624 5626 5628 5631 5633 5635
5364 5366 5368 5370 5372 5374 5375 5377 5379 5380 5382 5384 5386 5388 5389 5391 5394 5395 5398 5400 5402 5404 5407 5409 5412 5415 5418 5422 5425 5429 5432 5436 5441 5447 5453 5460 5466 5469 5471 5474 5477 5480 5484 5488 5492 5496 5501 5504 5507 5512 5517 5522 5525 5529 5533 5537 5541 5544 5548 5552 5557 5560 5564 5568 5572 5576 5580 5583 5586 5589 5593 5596 5599 5601 5604 5607 5610 5614 5616 5618 5620 5623 5625 5627 5630 5632
5364 5366 5368 5370 5371 5373 5374 5376 5378 5379 5381 5382 5384 5386 5388 5389 5391 5394 5395 5398 5400 5402 5405 5407 5410 5413 5416 5420 5423 5427 5431 5435 5440 5445 5451 5458 5464 5469 5471 5473 5476 5479 5483 5486 5490 5495 5500 5504 5508 5511 5515 5520 5524 5527 5530 5534 5538 5542 5546 5550 5554 5557 5561 5564 5569 5572 5576 5579 5582 5585 5588 5592 5595 5598 5601 5604 5607 5609 5612 5615 5617 5619 5622 5624 5626 5628
5364 5366 5368 5369 5371 5372 5374 5375 5377 5378 5379 5381 5383 5384 5386 5388 5389 5392 5394 5396 5398 5400 5403 5405 5408 5411 5414 5418 5421 5425 5429 5433 5438 5443 5448 5455 5461 5467 5470 5472 5474 5477 5481 5484 5488 5492 5498 5503 5507 5511 5514 5518 5521 5525 5528 5531 5534 5538 5543 5547 5550 5554 5557 5561 5564 5568 5572 5575 5579 5582 5585 5589 5592 5595 5598 5600 5602 5605 5609 5612 5614 5616 5618 5620 5623 5625